This is the latest recevied weather packets stored in our database for station/object DO7ZT-13. If no packets are shown the sender has not sent any weather packets the latest 10 day(s).
| Time | Temp. | Humidity | Pressure | Rain* | Wind** | Luminosity | Snow |
|---|---|---|---|---|---|---|---|
| 1777743914 | 20° C | 34% | 1017.9 hPa | 0 mm | 0.45 m/s, 150° | - | - |
| 1777743627 | 21.11° C | 32% | 1017.9 hPa | 0 mm | 0.45 m/s, 169° | - | - |
| 1777743315 | 21.11° C | 26% | 1017.9 hPa | 0 mm | 0.89 m/s, 169° | - | - |
| 1777743002 | 22.22° C | 28% | 1017.9 hPa | 0 mm | 0.45 m/s, 156° | - | - |
| 1777742715 | 22.22° C | 26% | 1017.9 hPa | 0 mm | 0.45 m/s, 145° | - | - |
| 1777742427 | 22.78° C | 26% | 1017.9 hPa | 0 mm | 0.45 m/s, 150° | - | - |
| 1777742115 | 22.78° C | 24% | 1018 hPa | 0 mm | 0.45 m/s, 150° | - | - |
| 1777741827 | 22.78° C | 24% | 1018 hPa | 0 mm | 0.89 m/s, 154° | - | - |
| 1777741515 | 22.78° C | 24% | 1018 hPa | 0 mm | 0.89 m/s, 144° | - | - |
| 1777741202 | 22.78° C | 22% | 1018.2 hPa | 0 mm | 0 m/s | - | - |
| 1777740915 | 22.78° C | 22% | 1018.2 hPa | 0 mm | 0.89 m/s, 186° | - | - |
| 1777740602 | 23.89° C | 23% | 1018.2 hPa | 0 mm | 0.45 m/s, 186° | - | - |
| 1777740316 | 23.89° C | 23% | 1018.3 hPa | 0 mm | 0 m/s | - | - |
| 1777740040 | 22.78° C | 23% | 1018.3 hPa | 0 mm | 0.89 m/s, 150° | - | - |
| 1777739727 | 23.89° C | 24% | 1018.3 hPa | 0 mm | 0.89 m/s, 145° | - | - |
| 1777739415 | 22.78° C | 23% | 1018.5 hPa | 0 mm | 1.79 m/s, 194° | - | - |
| 1777739103 | 23.89° C | 23% | 1018.5 hPa | 0 mm | 0.89 m/s, 150° | - | - |
| 1777738815 | 23.89° C | 22% | 1018.5 hPa | 0 mm | 0.45 m/s, 186° | - | - |
| 1777738503 | 23.89° C | 22% | 1018.7 hPa | 0 mm | 1.34 m/s, 140° | - | - |
| 1777738215 | 23.89° C | 21% | 1018.7 hPa | 0 mm | 1.34 m/s, 173° | - | - |
| 1777737903 | 23.89° C | 21% | 1018.7 hPa | 0 mm | 0.89 m/s, 174° | - | - |
| 1777737615 | 23.89° C | 21% | 1019.1 hPa | 0 mm | 0.89 m/s, 261° | - | - |
| 1777737302 | 23.89° C | 22% | 1019.1 hPa | 0 mm | 0.89 m/s, 155° | - | - |
| 1777737015 | 23.89° C | 23% | 1019.1 hPa | 0 mm | 0.89 m/s, 150° | - | - |
| 1777736702 | 23.89° C | 22% | 1019.1 hPa | 0 mm | 0.89 m/s, 187° | - | - |
* Rain latest hour (hover to see other rain measurements)
** Current wind speed in m/s (hover to see current wind gust speed)